Location: Newark
(48.9886°N, 1.2358°E)
Time: 13:58:09
(UTC+00:00)

A-11 Canister half - Visible Passes

Search period start: 20 November 2019 00:00
Search period end: 30 November 2019 00:00
Orbit: 1514 x 1685 km, 47.2° (Epoch: 19 November)

Date Brightness Start Highest point End Pass type
(mag) Time Alt. Az. Time Alt. Az. Time Alt. Az.
20 Nov 9.4 17:40:38 10° SW 17:50:23 57° SSE 17:57:03 23° E visible
20 Nov 9.0 19:44:53 10° W 19:55:05 81° S 19:55:15 81° SSE visible
20 Nov 10.6 21:49:56 10° W 21:53:26 25° W 21:53:26 25° W visible
21 Nov 9.5 17:17:47 10° SW 17:27:28 55° SSE 17:35:21 17° E visible
21 Nov 8.9 19:21:56 10° WSW 19:32:07 81° S 19:33:33 69° ESE visible
21 Nov 10.3 21:26:57 10° W 21:31:44 33° W 21:31:44 33° W visible
22 Nov 9.5 16:54:58 10° SW 17:04:34 53° SSE 17:13:39 12° ENE visible
22 Nov 9.0 18:59:00 10° WSW 19:09:10 80° S 19:11:51 56° E visible
22 Nov 9.9 21:04:00 10° W 21:10:02 42° W 21:10:02 42° W visible
23 Nov 9.6 16:32:09 10° SW 16:41:40 51° SSE 16:51:20 10° ENE visible
23 Nov 9.1 18:36:04 10° WSW 18:46:12 80° S 18:50:08 44° E visible
23 Nov 9.6 20:41:03 10° W 20:48:19 52° W 20:48:19 52° W visible
23 Nov 11.2 22:46:12 10° WNW 22:46:31 11° WNW 22:46:31 11° WNW visible
24 Nov 9.1 18:13:08 10° WSW 18:23:15 79° S 18:28:25 35° E visible
24 Nov 9.3 20:18:05 10° W 20:26:37 65° WSW 20:26:37 65° WSW visible
24 Nov 11.0 22:23:12 10° WNW 22:24:48 16° W 22:24:48 16° W visible
25 Nov 9.2 17:50:13 10° WSW 18:00:18 78° SSE 18:06:43 27° E visible
25 Nov 9.1 19:55:09 10° W 20:04:55 76° SW 20:04:55 76° SW visible
25 Nov 10.8 22:00:14 10° WNW 22:03:06 21° W 22:03:06 21° W visible
26 Nov 9.2 17:27:18 10° WSW 17:37:20 77° SSE 17:45:02 20° E visible
26 Nov 9.0 19:32:11 10° W 19:42:21 78° SSW 19:43:14 73° SSE visible
26 Nov 10.5 21:37:15 10° WNW 21:41:26 27° W 21:41:26 27° W visible
27 Nov 9.3 17:04:23 10° WSW 17:14:24 76° SSE 17:23:23 15° E visible
27 Nov 9.0 19:09:15 10° W 19:19:24 79° S 19:21:35 61° ESE visible
27 Nov 10.2 21:14:17 10° WNW 21:19:46 34° W 21:19:46 34° W visible
28 Nov 9.3 16:41:29 10° WSW 16:51:27 74° SSE 17:01:37 10° E visible
28 Nov 9.1 18:46:19 10° W 18:56:27 80° S 18:59:56 48° ESE visible
28 Nov 9.9 20:51:20 10° WNW 20:58:08 42° WSW 20:58:08 42° WSW visible
29 Nov 9.4 16:18:35 10° WSW 16:28:31 73° SSE 16:38:39 10° E visible
29 Nov 9.1 18:23:22 10° W 18:33:29 80° S 18:38:20 37° ESE visible
29 Nov 9.6 20:28:22 10° WNW 20:36:32 50° WSW 20:36:32 50° WSW visible
29 Nov 11.3 22:34:33 10° W 22:34:44 10° W 22:34:44 10° W visible
